status,avgMeasuredTime,avgSpeed,extID,medianMeasuredTime,TIMESTAMP,vehicleCount,_id,REPORT_ID
OK,62,32,1007,62,2014-08-01T08:00:00,3,20747062,188172
OK,134,15,1007,134,2014-08-01T08:10:00,2,20747884,188172
OK,57,35,1007,57,2014-08-01T08:15:00,5,20748333,188172
OK,51,39,1007,51,2014-08-01T08:20:00,2,20748782,188172
OK,64,31,1007,64,2014-08-01T08:25:00,2,20749231,188172
OK,64,31,1007,64,2014-08-01T08:30:00,2,20749680,188172
OK,64,31,1007,64,2014-08-01T08:35:00,0,20750129,188172
OK,64,31,1007,64,2014-08-01T08:40:00,0,20750578,188172
OK,64,31,1007,64,2014-08-01T08:50:00,0,20751476,188172
OK,58,35,1007,58,2014-08-01T09:00:00,2,20752374,188172
OK,94,21,1007,94,2014-08-01T09:05:00,2,20752823,188172
OK,111,18,1007,111,2014-08-01T09:10:00,1,20753272,188172
OK,46,44,1007,46,2014-08-01T09:20:00,1,20754170,188172
OK,139,14,1007,139,2014-08-01T09:25:00,2,20754619,188172
OK,91,22,1007,91,2014-08-01T09:30:00,3,20755068,188172
OK,83,24,1007,83,2014-08-01T09:35:00,3,20755517,188172
OK,73,27,1007,73,2014-08-01T09:40:00,4,20755966,188172
OK,78,26,1007,78,2014-08-01T09:45:00,3,20756415,188172
OK,74,27,1007,74,2014-08-01T09:50:00,2,20756864,188172
OK,70,29,1007,70,2014-08-01T09:55:00,3,20757313,188172
OK,60,33,1007,60,2014-08-01T10:00:00,5,20757762,188172
OK,66,30,1007,66,2014-08-01T10:05:00,4,20758211,188172
OK,87,23,1007,87,2014-08-01T10:15:00,0,20759109,188172
OK,87,23,1007,87,2014-08-01T10:20:00,0,20759558,188172
OK,87,23,1007,87,2014-08-01T10:25:00,0,20760007,188172
OK,87,23,1007,87,2014-08-01T10:30:00,0,20760456,188172
OK,97,21,1007,97,2014-08-01T10:35:00,3,20760905,188172
OK,87,23,1007,87,2014-08-01T10:40:00,7,20761354,188172
OK,59,34,1007,59,2014-08-01T10:50:00,1,20762252,188172
OK,97,21,1007,97,2014-08-01T11:00:00,3,20763150,188172
OK,79,25,1007,79,2014-08-01T11:10:00,4,20764048,188172
OK,78,26,1007,78,2014-08-01T11:20:00,2,20764945,188172
OK,149,13,1007,149,2014-08-01T11:25:00,3,20765394,188172
OK,149,13,1007,149,2014-08-01T11:30:00,3,20765843,188172
OK,89,22,1007,89,2014-08-01T11:35:00,2,20766292,188172
OK,104,19,1007,104,2014-08-01T11:40:00,1,20766741,188172
OK,104,19,1007,104,2014-08-01T11:45:00,0,20767190,188172
OK,104,19,1007,104,2014-08-01T11:50:00,0,20767639,188172
OK,104,19,1007,104,2014-08-01T11:55:00,0,20768088,188172
OK,227,8,1007,227,2014-08-01T12:00:00,1,20768537,188172
OK,197,10,1007,197,2014-08-01T12:10:00,1,20769435,188172
OK,197,10,1007,197,2014-08-01T12:15:00,1,20769884,188172
OK,326,6,1007,326,2014-08-01T12:20:00,2,20770333,188172
OK,322,6,1007,322,2014-08-01T12:25:00,3,20770782,188172
OK,206,9,1007,206,2014-08-01T12:30:00,2,20771231,188172
OK,80,25,1007,80,2014-08-01T12:35:00,3,20771680,188172
OK,75,27,1007,75,2014-08-01T12:40:00,4,20772129,188172
OK,60,33,1007,60,2014-08-01T12:45:00,5,20772578,188172
OK,60,33,1007,60,2014-08-01T12:50:00,3,20773027,188172
OK,111,18,1007,111,2014-08-01T12:55:00,1,20773476,188172
OK,81,25,1007,81,2014-08-01T13:00:00,2,20773925,188172
OK,87,23,1007,87,2014-08-01T13:05:00,2,20774374,188172
OK,120,16,1007,120,2014-08-01T13:10:00,2,20774823,188172
OK,105,19,1007,105,2014-08-01T13:15:00,3,20775272,188172
OK,79,25,1007,79,2014-08-01T13:20:00,2,20775721,188172
OK,157,12,1007,157,2014-08-01T13:25:00,1,20776170,188172
OK,167,12,1007,167,2014-08-01T13:30:00,3,20776619,188172
OK,192,10,1007,192,2014-08-01T13:35:00,2,20777068,188172
OK,82,24,1007,82,2014-08-01T13:40:00,1,20777517,188172
OK,117,17,1007,117,2014-08-01T13:45:00,5,20777966,188172
OK,142,14,1007,142,2014-08-01T13:50:00,6,20778415,188172
OK,107,19,1007,107,2014-08-01T14:00:00,3,20779313,188172
OK,73,27,1007,73,2014-08-01T14:05:00,5,20779762,188172
OK,46,44,1007,46,2014-08-01T14:10:00,2,20780211,188172
OK,35,58,1007,35,2014-08-01T14:15:00,0,20780660,188172
OK,39,52,1007,39,2014-08-01T14:20:00,1,20781109,188172
OK,39,52,1007,39,2014-08-01T14:25:00,1,20781558,188172
OK,86,23,1007,86,2014-08-01T14:30:00,2,20782007,188172
OK,77,26,1007,77,2014-08-01T14:35:00,6,20782456,188172
OK,72,28,1007,72,2014-08-01T14:40:00,5,20782905,188172
OK,60,33,1007,60,2014-08-01T14:45:00,5,20783354,188172
OK,61,33,1007,61,2014-08-01T14:50:00,4,20783803,188172
OK,59,34,1007,59,2014-08-01T15:00:00,2,20784701,188172
OK,50,40,1007,50,2014-08-01T15:05:00,1,20785150,188172
OK,50,40,1007,50,2014-08-01T15:10:00,1,20785599,188172
OK,50,40,1007,50,2014-08-01T15:15:00,0,20786048,188172
OK,119,17,1007,119,2014-08-01T15:20:00,3,20786497,188172
OK,95,21,1007,95,2014-08-01T15:25:00,4,20786946,188172
OK,91,22,1007,91,2014-08-01T15:30:00,2,20787395,188172
OK,152,13,1007,152,2014-08-01T15:35:00,1,20787844,188172
OK,152,13,1007,152,2014-08-01T15:40:00,0,20788293,188172
OK,84,24,1007,84,2014-08-01T15:45:00,1,20788742,188172
OK,84,24,1007,84,2014-08-01T15:50:00,1,20789191,188172
OK,235,8,1007,235,2014-08-01T15:55:00,1,20789640,188172
OK,223,9,1007,223,2014-08-01T16:00:00,2,20790089,188172
OK,79,25,1007,79,2014-08-01T16:05:00,3,20790538,188172
OK,75,27,1007,75,2014-08-01T16:10:00,3,20790987,188172
OK,72,28,1007,72,2014-08-01T16:15:00,0,20791436,188172
OK,66,30,1007,66,2014-08-01T16:20:00,2,20791885,188172
OK,66,30,1007,66,2014-08-01T16:25:00,2,20792334,188172
OK,50,40,1007,50,2014-08-01T16:30:00,2,20792783,188172
OK,50,40,1007,50,2014-08-01T16:35:00,2,20793232,188172
OK,80,25,1007,80,2014-08-01T16:40:00,2,20793681,188172
OK,80,25,1007,80,2014-08-01T16:45:00,2,20794130,188172
OK,80,25,1007,80,2014-08-01T16:50:00,0,20794579,188172
OK,38,53,1007,38,2014-08-01T16:55:00,1,20795028,188172
OK,46,44,1007,46,2014-08-01T17:00:00,2,20795477,188172
OK,54,37,1007,54,2014-08-01T17:05:00,1,20795926,188172
OK,54,37,1007,54,2014-08-01T17:10:00,0,20796375,188172
OK,54,37,1007,54,2014-08-01T17:15:00,0,20796824,188172
OK,54,37,1007,54,2014-08-01T17:20:00,0,20797273,188172
OK,54,37,1007,54,2014-08-01T17:25:00,0,20797722,188172
OK,54,37,1007,54,2014-08-01T17:30:00,0,20798171,188172
OK,54,37,1007,54,2014-08-01T17:35:00,0,20798620,188172
OK,54,37,1007,54,2014-08-01T17:40:00,0,20799069,188172
OK,42,48,1007,42,2014-08-01T17:45:00,2,20799518,188172
OK,47,43,1007,47,2014-08-01T17:50:00,2,20799967,188172
OK,57,35,1007,57,2014-08-01T17:55:00,0,20800416,188172
OK,57,35,1007,57,2014-08-01T18:00:00,0,20800865,188172
OK,57,35,1007,57,2014-08-01T18:05:00,0,20801314,188172
OK,57,35,1007,57,2014-08-01T18:10:00,0,20801763,188172
OK,68,29,1007,68,2014-08-01T18:15:00,1,20802212,188172
OK,62,32,1007,62,2014-08-01T18:20:00,3,20802661,188172
OK,52,39,1007,52,2014-08-01T18:25:00,2,20803110,188172
OK,43,47,1007,43,2014-08-01T18:30:00,0,20803559,188172
OK,43,47,1007,43,2014-08-01T18:35:00,0,20804008,188172
OK,69,29,1007,69,2014-08-01T18:40:00,1,20804457,188172
OK,69,29,1007,69,2014-08-01T18:45:00,0,20804906,188172
OK,69,29,1007,69,2014-08-01T18:50:00,0,20805355,188172
OK,69,29,1007,69,2014-08-01T18:55:00,0,20805804,188172
OK,69,29,1007,69,2014-08-01T19:00:00,0,20806253,188172
OK,69,29,1007,69,2014-08-01T19:05:00,0,20806702,188172
OK,50,40,1007,50,2014-08-01T19:10:00,2,20807151,188172
OK,46,44,1007,46,2014-08-01T19:15:00,1,20807600,188172
OK,56,36,1007,56,2014-08-01T19:20:00,1,20808049,188172
OK,56,36,1007,56,2014-08-01T19:25:00,3,20808498,188172
OK,49,41,1007,49,2014-08-01T19:30:00,2,20808947,188172
OK,62,32,1007,62,2014-08-01T19:35:00,1,20809396,188172
OK,62,32,1007,62,2014-08-01T19:40:00,1,20809845,188172
OK,43,47,1007,43,2014-08-01T19:45:00,2,20810294,188172
OK,39,52,1007,39,2014-08-01T19:50:00,1,20810743,188172
OK,39,52,1007,39,2014-08-01T19:55:00,0,20811192,188172
OK,39,52,1007,39,2014-08-01T22:00:00,0,20816921,188172
OK,45,45,1007,45,2014-08-02T00:00:00,1,20823360,188172
OK,45,45,1007,45,2014-08-02T00:05:00,1,20823809,188172
OK,45,45,1007,45,2014-08-02T00:10:00,0,20824258,188172
OK,45,45,1007,45,2014-08-02T00:15:00,0,20824707,188172
OK,45,45,1007,45,2014-08-02T00:20:00,0,20825156,188172
OK,45,45,1007,45,2014-08-02T00:25:00,0,20825605,188172
OK,45,45,1007,45,2014-08-02T00:30:00,0,20826054,188172
OK,45,45,1007,45,2014-08-02T00:35:00,0,20826503,188172
OK,45,45,1007,45,2014-08-02T00:40:00,0,20826952,188172
OK,45,45,1007,45,2014-08-02T00:45:00,0,20827401,188172
OK,45,45,1007,45,2014-08-02T00:50:00,0,20827850,188172
OK,45,45,1007,45,2014-08-02T00:55:00,0,20828299,188172
OK,45,45,1007,45,2014-08-02T01:00:00,0,20828748,188172
OK,45,45,1007,45,2014-08-02T01:05:00,0,20829197,188172
OK,35,58,1007,35,2014-08-02T01:10:00,1,20829646,188172
OK,45,45,1007,45,2014-08-02T01:15:00,0,20830095,188172
OK,45,45,1007,45,2014-08-02T01:20:00,0,20830544,188172
OK,45,45,1007,45,2014-08-02T01:25:00,0,20830993,188172
OK,45,45,1007,45,2014-08-02T01:30:00,0,20831442,188172
OK,45,45,1007,45,2014-08-02T01:35:00,0,20831891,188172
OK,45,45,1007,45,2014-08-02T01:40:00,0,20832340,188172
OK,45,45,1007,45,2014-08-02T01:45:00,0,20832789,188172
OK,45,45,1007,45,2014-08-02T01:50:00,0,20833238,188172
OK,45,45,1007,45,2014-08-02T01:55:00,0,20833687,188172
OK,45,45,1007,45,2014-08-02T02:00:00,0,20834136,188172
OK,45,45,1007,45,2014-08-02T02:05:00,0,20834585,188172
OK,45,45,1007,45,2014-08-02T02:10:00,0,20835034,188172
OK,45,45,1007,45,2014-08-02T02:15:00,0,20835483,188172
OK,45,45,1007,45,2014-08-02T02:20:00,0,20835932,188172
OK,45,45,1007,45,2014-08-02T02:25:00,0,20836381,188172
OK,45,45,1007,45,2014-08-02T02:30:00,0,20836830,188172
OK,45,45,1007,45,2014-08-02T02:35:00,0,20837279,188172
OK,34,59,1007,34,2014-08-02T02:40:00,1,20837728,188172
OK,34,59,1007,34,2014-08-02T02:45:00,1,20838177,188172
OK,34,59,1007,34,2014-08-02T02:50:00,1,20838626,188172
OK,34,59,1007,34,2014-08-02T02:55:00,1,20839075,188172
OK,34,59,1007,34,2014-08-02T03:00:00,0,20839524,188172
OK,34,59,1007,34,2014-08-02T03:05:00,0,20839973,188172
OK,34,59,1007,34,2014-08-02T03:10:00,0,20840422,188172
OK,34,59,1007,34,2014-08-02T03:15:00,0,20840871,188172
OK,34,59,1007,34,2014-08-02T03:20:00,0,20841320,188172
OK,34,59,1007,34,2014-08-02T03:25:00,0,20841769,188172
OK,34,59,1007,34,2014-08-02T03:30:00,0,20842218,188172
OK,34,59,1007,34,2014-08-02T03:35:00,0,20842667,188172
OK,34,59,1007,34,2014-08-02T03:40:00,0,20843116,188172
OK,34,59,1007,34,2014-08-02T03:45:00,0,20843565,188172
OK,34,59,1007,34,2014-08-02T03:50:00,0,20844014,188172
OK,34,59,1007,34,2014-08-02T03:55:00,0,20844463,188172
OK,49,41,1007,49,2014-08-02T06:00:00,1,20851917,188172
OK,49,41,1007,49,2014-08-02T06:05:00,1,20852366,188172
OK,43,47,1007,43,2014-08-02T06:10:00,1,20852815,188172
OK,43,47,1007,43,2014-08-02T06:15:00,1,20853264,188172
OK,60,33,1007,60,2014-08-02T06:20:00,1,20853713,188172
OK,60,33,1007,60,2014-08-02T06:25:00,0,20854162,188172
OK,60,33,1007,60,2014-08-02T06:30:00,0,20854611,188172
OK,49,41,1007,49,2014-08-02T06:35:00,2,20855060,188172
OK,60,33,1007,60,2014-08-02T06:40:00,2,20855509,188172
OK,53,38,1007,53,2014-08-02T06:45:00,2,20855958,188172
OK,42,48,1007,42,2014-08-02T06:50:00,2,20856407,188172
OK,44,46,1007,44,2014-08-02T06:55:00,1,20856856,188172
OK,44,46,1007,44,2014-08-02T07:00:00,0,20857305,188172
OK,44,46,1007,44,2014-08-02T07:05:00,0,20857754,188172
OK,54,37,1007,54,2014-08-02T07:10:00,3,20858203,188172
OK,54,37,1007,54,2014-08-02T07:15:00,0,20858652,188172
OK,54,37,1007,54,2014-08-02T07:20:00,0,20859101,188172
OK,54,37,1007,54,2014-08-02T07:25:00,0,20859550,188172
OK,71,28,1007,71,2014-08-02T07:30:00,3,20859999,188172
OK,72,28,1007,72,2014-08-02T07:35:00,2,20860448,188172
OK,61,33,1007,61,2014-08-02T07:40:00,0,20860897,188172
OK,63,32,1007,63,2014-08-02T07:45:00,2,20861346,188172
OK,63,32,1007,63,2014-08-02T07:50:00,2,20861795,188172
OK,85,23,1007,85,2014-08-02T07:55:00,1,20862244,188172
OK,72,28,1007,72,2014-08-02T08:00:00,2,20862693,188172
OK,60,33,1007,60,2014-08-02T08:05:00,4,20863142,188172
OK,61,33,1007,61,2014-08-02T08:10:00,3,20863591,188172
OK,64,31,1007,64,2014-08-02T08:15:00,0,20864040,188172
OK,57,35,1007,57,2014-08-02T08:20:00,2,20864489,188172
OK,60,33,1007,60,2014-08-02T08:25:00,3,20864938,188172
OK,87,23,1007,87,2014-08-02T08:30:00,1,20865387,188172
OK,87,23,1007,87,2014-08-02T08:35:00,0,20865836,188172
OK,87,23,1007,87,2014-08-02T08:40:00,0,20866285,188172
OK,87,23,1007,87,2014-08-02T08:45:00,0,20866734,188172
OK,87,23,1007,87,2014-08-02T08:50:00,0,20867183,188172
OK,42,48,1007,42,2014-08-02T08:55:00,1,20867632,188172
OK,42,48,1007,42,2014-08-02T09:00:00,0,20868081,188172
OK,47,43,1007,47,2014-08-02T09:05:00,2,20868530,188172
OK,51,39,1007,51,2014-08-02T09:10:00,4,20868979,188172
OK,61,33,1007,61,2014-08-02T09:15:00,2,20869428,188172
OK,59,34,1007,59,2014-08-02T09:20:00,2,20869877,188172
OK,52,39,1007,52,2014-08-02T09:25:00,1,20870326,188172
OK,52,39,1007,52,2014-08-02T09:30:00,0,20870775,188172
OK,52,39,1007,52,2014-08-02T09:35:00,0,20871224,188172
OK,52,39,1007,52,2014-08-02T09:40:00,0,20871673,188172
OK,78,26,1007,78,2014-08-02T09:45:00,6,20872122,188172
OK,78,26,1007,78,2014-08-02T09:50:00,9,20872571,188172
OK,67,30,1007,67,2014-08-02T09:55:00,4,20873020,188172
OK,89,22,1007,89,2014-08-02T10:00:00,2,20873469,188172
OK,79,25,1007,79,2014-08-02T10:05:00,2,20873918,188172
OK,43,47,1007,43,2014-08-02T10:10:00,4,20874367,188172
OK,58,35,1007,58,2014-08-02T10:15:00,4,20874816,188172
OK,63,32,1007,63,2014-08-02T10:20:00,3,20875265,188172
OK,53,38,1007,53,2014-08-02T10:25:00,1,20875714,188172
OK,53,38,1007,53,2014-08-02T10:30:00,0,20876163,188172
OK,53,38,1007,53,2014-08-02T10:35:00,0,20876612,188172
OK,67,30,1007,67,2014-08-02T10:40:00,1,20877061,188172
OK,137,14,1007,137,2014-08-02T10:45:00,1,20877510,188172
OK,89,22,1007,89,2014-08-02T10:50:00,2,20877959,188172
OK,49,41,1007,49,2014-08-02T10:55:00,2,20878408,188172
OK,57,35,1007,57,2014-08-02T11:00:00,1,20878857,188172
OK,98,20,1007,98,2014-08-02T11:05:00,1,20879306,188172
OK,57,35,1007,57,2014-08-02T11:10:00,1,20879755,188172
OK,60,33,1007,60,2014-08-02T11:15:00,4,20880204,188172
OK,60,33,1007,60,2014-08-02T11:20:00,4,20880653,188172
OK,69,29,1007,69,2014-08-02T11:25:00,0,20881102,188172
OK,69,29,1007,69,2014-08-02T11:30:00,0,20881551,188172
OK,75,27,1007,75,2014-08-02T11:35:00,1,20882000,188172
OK,75,27,1007,75,2014-08-02T11:40:00,1,20882449,188172
OK,75,27,1007,75,2014-08-02T11:45:00,0,20882898,188172
OK,44,46,1007,44,2014-08-02T11:50:00,1,20883347,188172
OK,44,46,1007,44,2014-08-02T11:55:00,1,20883796,188172
OK,29,70,1007,29,2014-08-02T12:00:00,1,20884245,188172
OK,65,31,1007,65,2014-08-02T12:05:00,2,20884694,188172
OK,101,20,1007,101,2014-08-02T12:10:00,1,20885143,188172
OK,59,34,1007,59,2014-08-02T12:15:00,4,20885592,188172
OK,65,31,1007,65,2014-08-02T12:20:00,5,20886041,188172
OK,97,21,1007,97,2014-08-02T12:25:00,3,20886490,188172
OK,83,24,1007,83,2014-08-02T12:30:00,2,20886939,188172
OK,69,29,1007,69,2014-08-02T12:35:00,1,20887388,188172
OK,44,46,1007,44,2014-08-02T12:40:00,1,20887837,188172
OK,44,46,1007,44,2014-08-02T12:45:00,3,20888286,188172
OK,58,35,1007,58,2014-08-02T12:50:00,2,20888735,188172
OK,40,50,1007,40,2014-08-02T12:55:00,0,20889184,188172
OK,29,70,1007,29,2014-08-02T13:00:00,1,20889633,188172
OK,29,70,1007,29,2014-08-02T13:05:00,1,20890082,188172
OK,76,26,1007,76,2014-08-02T13:10:00,1,20890531,188172
OK,76,26,1007,76,2014-08-02T13:15:00,1,20890980,188172
OK,122,16,1007,122,2014-08-02T13:20:00,1,20891429,188172
OK,122,16,1007,122,2014-08-02T13:25:00,1,20891878,188172
OK,94,21,1007,94,2014-08-02T13:30:00,2,20892327,188172
OK,68,29,1007,68,2014-08-02T13:35:00,3,20892776,188172
OK,77,26,1007,77,2014-08-02T13:40:00,2,20893225,188172
OK,71,28,1007,71,2014-08-02T13:45:00,2,20893674,188172
OK,57,35,1007,57,2014-08-02T13:50:00,2,20894123,188172
OK,69,29,1007,69,2014-08-02T13:55:00,2,20894572,188172
OK,61,33,1007,61,2014-08-02T14:00:00,2,20895021,188172
OK,50,40,1007,50,2014-08-02T14:05:00,2,20895470,188172
OK,102,19,1007,102,2014-08-02T14:10:00,2,20895919,188172
OK,122,16,1007,122,2014-08-02T14:15:00,2,20896368,188172
OK,63,32,1007,63,2014-08-02T14:20:00,2,20896817,188172
OK,41,49,1007,41,2014-08-02T14:25:00,2,20897266,188172
OK,56,36,1007,56,2014-08-02T14:30:00,2,20897715,188172
OK,69,29,1007,69,2014-08-02T14:35:00,3,20898164,188172
OK,59,34,1007,59,2014-08-02T14:40:00,2,20898613,188172
OK,41,49,1007,41,2014-08-02T14:45:00,1,20899062,188172
OK,55,37,1007,55,2014-08-02T14:50:00,2,20899511,188172
OK,61,33,1007,61,2014-08-02T14:55:00,3,20899960,188172
OK,51,39,1007,51,2014-08-02T15:00:00,1,20900409,188172
OK,51,39,1007,51,2014-08-02T15:05:00,0,20900858,188172
OK,62,32,1007,62,2014-08-02T15:10:00,2,20901307,188172
OK,46,44,1007,46,2014-08-02T15:15:00,1,20901756,188172
OK,103,19,1007,103,2014-08-02T15:20:00,2,20902205,188172
OK,64,31,1007,64,2014-08-02T15:25:00,5,20902654,188172
OK,54,37,1007,54,2014-08-02T15:30:00,2,20903103,188172
OK,52,39,1007,52,2014-08-02T15:35:00,2,20903552,188172
OK,54,37,1007,54,2014-08-02T15:40:00,2,20904001,188172
OK,45,45,1007,45,2014-08-02T15:45:00,1,20904450,188172
OK,65,31,1007,65,2014-08-02T15:50:00,1,20904899,188172
OK,62,32,1007,62,2014-08-02T15:55:00,1,20905348,188172
OK,62,32,1007,62,2014-08-02T16:00:00,0,20905797,188172
OK,60,33,1007,60,2014-08-02T16:05:00,2,20906246,188172
OK,53,38,1007,53,2014-08-02T16:10:00,1,20906695,188172
OK,106,19,1007,106,2014-08-02T16:15:00,2,20907144,188172
OK,106,19,1007,106,2014-08-02T16:20:00,2,20907593,188172
OK,61,33,1007,61,2014-08-02T16:25:00,1,20908042,188172
OK,48,42,1007,48,2014-08-02T16:30:00,6,20908491,188172
OK,41,49,1007,41,2014-08-02T16:35:00,7,20908940,188172
OK,63,32,1007,63,2014-08-02T16:40:00,2,20909389,188172
OK,70,29,1007,70,2014-08-02T16:45:00,3,20909838,188172
OK,62,32,1007,62,2014-08-02T16:50:00,1,20910287,188172
OK,49,41,1007,49,2014-08-02T16:55:00,1,20910736,188172
OK,53,38,1007,53,2014-08-02T17:00:00,2,20911185,188172
OK,57,35,1007,57,2014-08-02T17:05:00,1,20911634,188172
OK,57,35,1007,57,2014-08-02T17:10:00,0,20912083,188172
OK,57,35,1007,57,2014-08-02T17:15:00,0,20912532,188172
OK,57,35,1007,57,2014-08-02T17:20:00,0,20912981,188172
OK,57,35,1007,57,2014-08-02T17:25:00,0,20913430,188172
OK,57,35,1007,57,2014-08-02T17:30:00,0,20913879,188172
OK,53,38,1007,53,2014-08-02T17:35:00,1,20914328,188172
OK,53,38,1007,53,2014-08-02T17:40:00,1,20914777,188172
OK,53,38,1007,53,2014-08-02T17:45:00,0,20915226,188172
OK,55,37,1007,55,2014-08-02T17:50:00,1,20915675,188172
OK,55,37,1007,55,2014-08-02T17:55:00,0,20916124,188172
OK,50,40,1007,50,2014-08-02T18:00:00,2,20916573,188172
OK,50,40,1007,50,2014-08-02T18:05:00,2,20917022,188172
OK,37,55,1007,37,2014-08-02T18:10:00,1,20917471,188172
OK,51,39,1007,51,2014-08-02T18:15:00,2,20917920,188172
OK,66,30,1007,66,2014-08-02T18:20:00,1,20918369,188172
OK,55,37,1007,55,2014-08-02T18:25:00,2,20918818,188172
OK,63,32,1007,63,2014-08-02T18:30:00,1,20919267,188172
OK,58,35,1007,58,2014-08-02T18:35:00,1,20919716,188172
OK,58,35,1007,58,2014-08-02T18:40:00,1,20920165,188172
OK,39,52,1007,39,2014-08-02T18:45:00,1,20920614,188172
OK,39,52,1007,39,2014-08-02T18:50:00,1,20921063,188172
OK,39,52,1007,39,2014-08-02T18:55:00,0,20921512,188172
OK,50,40,1007,50,2014-08-02T19:00:00,1,20921961,188172
OK,50,40,1007,50,2014-08-02T19:05:00,2,20922410,188172
OK,57,35,1007,57,2014-08-02T19:10:00,2,20922859,188172
OK,57,35,1007,57,2014-08-02T19:15:00,2,20923308,188172
OK,48,42,1007,48,2014-08-02T19:20:00,2,20923757,188172
OK,40,50,1007,40,2014-08-02T19:25:00,1,20924206,188172
OK,40,50,1007,40,2014-08-02T19:30:00,1,20924655,188172
OK,40,50,1007,40,2014-08-02T19:35:00,0,20925104,188172
OK,40,50,1007,40,2014-08-02T19:40:00,0,20925553,188172
OK,40,50,1007,40,2014-08-02T19:45:00,0,20926002,188172
OK,40,50,1007,40,2014-08-02T19:50:00,0,20926451,188172
OK,36,56,1007,36,2014-08-02T19:55:00,1,20926900,188172
OK,36,56,1007,36,2014-08-02T20:00:00,0,20927349,188172
OK,36,56,1007,36,2014-08-02T20:05:00,0,20927798,188172
OK,36,56,1007,36,2014-08-02T20:10:00,0,20928247,188172
OK,36,56,1007,36,2014-08-02T20:15:00,0,20928696,188172
OK,52,39,1007,52,2014-08-02T20:20:00,3,20929145,188172
OK,52,39,1007,52,2014-08-02T20:25:00,3,20929594,188172
OK,35,58,1007,35,2014-08-02T20:30:00,0,20930043,188172
OK,41,49,1007,41,2014-08-02T20:35:00,1,20930492,188172
OK,44,46,1007,44,2014-08-02T20:40:00,3,20930941,188172
OK,61,33,1007,61,2014-08-02T20:45:00,1,20931390,188172
OK,61,33,1007,61,2014-08-02T20:50:00,0,20931839,188172
OK,61,33,1007,61,2014-08-02T20:55:00,0,20932288,188172
OK,49,41,1007,49,2014-08-02T21:00:00,1,20932737,188172
OK,49,41,1007,49,2014-08-02T21:05:00,0,20933186,188172
OK,49,41,1007,49,2014-08-02T21:10:00,0,20933635,188172
OK,49,41,1007,49,2014-08-02T21:15:00,0,20934084,188172
OK,49,41,1007,49,2014-08-02T21:20:00,0,20934533,188172
OK,49,41,1007,49,2014-08-02T21:25:00,0,20934982,188172
OK,49,41,1007,49,2014-08-02T21:30:00,0,20935431,188172
OK,49,41,1007,49,2014-08-02T21:35:00,0,20935880,188172
OK,49,41,1007,49,2014-08-02T21:40:00,0,20936329,188172
OK,49,41,1007,49,2014-08-02T21:45:00,0,20936778,188172
OK,49,41,1007,49,2014-08-02T21:50:00,0,20937227,188172
OK,49,41,1007,49,2014-08-02T21:55:00,0,20937676,188172
OK,49,41,1007,49,2014-08-02T22:00:00,0,20938125,188172
OK,49,41,1007,49,2014-08-02T22:05:00,0,20938574,188172
OK,78,26,1007,78,2014-08-02T22:10:00,1,20939023,188172
OK,78,26,1007,78,2014-08-02T22:15:00,0,20939472,188172
OK,78,26,1007,78,2014-08-02T22:20:00,0,20939921,188172
OK,78,26,1007,78,2014-08-02T22:25:00,0,20940370,188172
OK,78,26,1007,78,2014-08-02T22:30:00,0,20940819,188172
OK,43,47,1007,43,2014-08-02T22:35:00,1,20941268,188172
OK,43,47,1007,43,2014-08-02T22:40:00,1,20941717,188172
OK,43,47,1007,43,2014-08-02T22:45:00,0,20942166,188172
OK,43,47,1007,43,2014-08-02T22:50:00,0,20942615,188172
OK,43,47,1007,43,2014-08-02T22:55:00,0,20943064,188172
OK,43,47,1007,43,2014-08-02T23:00:00,0,20943513,188172
OK,43,47,1007,43,2014-08-02T23:10:00,0,20943962,188172
OK,46,44,1007,46,2014-08-02T23:15:00,1,20944411,188172
OK,46,44,1007,46,2014-08-02T23:20:00,1,20944860,188172
OK,46,44,1007,46,2014-08-02T23:25:00,0,20945309,188172
OK,46,44,1007,46,2014-08-02T23:30:00,0,20945758,188172
OK,46,44,1007,46,2014-08-02T23:35:00,0,20946207,188172
OK,46,44,1007,46,2014-08-02T23:40:00,0,20946656,188172
OK,24,84,1007,24,2014-08-02T23:45:00,1,20947105,188172
OK,26,78,1007,26,2014-08-02T23:50:00,2,20947554,188172
OK,28,72,1007,28,2014-08-02T23:55:00,1,20948003,188172
OK,28,72,1007,28,2014-08-03T00:00:00,0,20948452,188172
OK,28,72,1007,28,2014-08-03T00:05:00,0,20948901,188172
OK,37,55,1007,37,2014-08-03T00:10:00,1,20949349,188172
OK,55,37,1007,55,2014-08-03T00:15:00,1,20949798,188172
OK,55,37,1007,55,2014-08-03T00:20:00,0,20950247,188172
OK,55,37,1007,55,2014-08-03T00:25:00,0,20950696,188172
OK,55,37,1007,55,2014-08-03T00:30:00,0,20951145,188172
OK,55,37,1007,55,2014-08-03T00:35:00,0,20951594,188172
OK,55,37,1007,55,2014-08-03T00:40:00,0,20952043,188172
OK,55,37,1007,55,2014-08-03T00:45:00,0,20952492,188172
OK,55,37,1007,55,2014-08-03T00:50:00,0,20952941,188172
OK,55,37,1007,55,2014-08-03T00:55:00,0,20953390,188172
OK,55,37,1007,55,2014-08-03T01:00:00,0,20953839,188172
OK,55,37,1007,55,2014-08-03T01:05:00,0,20954288,188172
OK,55,37,1007,55,2014-08-03T01:10:00,0,20954737,188172
OK,55,37,1007,55,2014-08-03T01:15:00,0,20955186,188172
OK,55,37,1007,55,2014-08-03T01:20:00,0,20955635,188172
OK,55,37,1007,55,2014-08-03T01:25:00,0,20956084,188172
OK,55,37,1007,55,2014-08-03T01:30:00,0,20956533,188172
OK,55,37,1007,55,2014-08-03T01:35:00,0,20956982,188172
OK,55,37,1007,55,2014-08-03T01:40:00,0,20957431,188172
OK,55,37,1007,55,2014-08-03T01:45:00,0,20957880,188172
OK,55,37,1007,55,2014-08-03T01:50:00,0,20958329,188172
OK,55,37,1007,55,2014-08-03T01:55:00,0,20958778,188172
OK,55,37,1007,55,2014-08-03T02:00:00,0,20959227,188172
OK,55,37,1007,55,2014-08-03T02:05:00,0,20959676,188172
OK,55,37,1007,55,2014-08-03T02:10:00,0,20960125,188172
OK,55,37,1007,55,2014-08-03T02:15:00,0,20960574,188172
OK,55,37,1007,55,2014-08-03T02:20:00,0,20961023,188172